Theta_e
309 309 308 307 306 306 306 306 307 308 308 308 308 309 309 309 311 312 315 321 317 314 314 315 323 325 327 327 329 330 326 328 328 327 327 327 326 329 328 327 326 325 325 326 326
304 305 305 307 308 308 308 307 306 306 306 307 308 308 308 308 309 312 324 320 320 315 313 314 321 325 329 329 329 327 326 327 327 327 326 327 328 328 327 327 326 325 326 326 326
298 300 302 303 304 305 306 307 308 308 306 305 305 306 307 307 307 315 319 320 321 317 314 311 321 324 326 327 328 327 328 327 327 329 329 328 328 329 327 326 326 326 326 325 326
299 297 297 298 300 301 303 304 305 306 308 309 308 305 305 305 307 315 317 317 317 317 315 311 322 326 324 325 327 327 328 328 328 328 329 327 329 328 328 328 329 329 326 325 325
304 303 302 299 298 297 297 299 302 304 304 306 307 308 307 302 304 314 315 316 315 317 318 312 315 324 322 325 326 326 326 327 328 329 329 329 327 328 328 329 329 329 327 326 325
306 305 304 303 303 301 299 299 299 300 302 305 307 307 308 306 307 310 312 314 313 312 316 314 315 316 318 318 319 324 325 326 328 329 329 328 328 328 328 327 327 327 326 326 326
302 303 303 303 303 303 303 302 300 299 299 302 306 307 310 311 310 308 309 311 313 310 310 314 316 318 318 316 318 318 317 318 320 324 325 327 325 326 326 326 326 327 326 326 326
301 301 302 302 302 302 302 302 303 302 301 301 301 307 309 308 309 311 310 310 312 311 311 310 313 317 317 317 317 317 317 319 320 321 323 322 323 323 325 325 326 326 326 326 326
301 301 301 301 301 301 302 302 302 303 303 302 306 308 309 307 308 311 311 311 310 311 313 314 315 317 316 316 314 315 317 317 318 319 320 321 322 322 325 325 325 326 326 325 325
301 301 302 301 301 301 301 302 305 308 303 304 306 308 307 308 309 309 310 311 310 308 308 311 315 313 311 313 317 316 316 317 318 319 319 320 321 322 324 324 324 325 326 325 325
301 302 302 302 302 302 301 302 308 309 307 308 307 306 309 309 310 311 310 309 307 311 309 311 311 317 316 316 317 318 317 318 319 320 320 320 321 322 323 322 323 324 326 325 325
302 302 302 302 302 301 302 304 307 306 306 307 307 308 308 309 310 311 312 310 310 308 311 313 313 314 318 317 317 318 317 318 319 320 320 320 320 321 321 321 323 325 326 324 324
302 302 302 302 302 302 303 304 304 305 305 307 307 307 307 306 311 311 312 312 311 310 310 311 314 315 319 320 320 318 317 317 318 320 320 320 321 321 322 322 323 326 326 326 327
302 302 301 302 303 304 303 304 304 306 306 308 310 309 308 309 310 308 311 314 313 310 311 311 313 315 317 320 317 316 316 317 318 319 320 320 322 321 321 322 321 323 324 325 325
301 301 301 302 303 303 302 303 306 306 307 306 309 310 311 311 312 311 310 313 315 312 311 311 312 313 316 317 316 317 318 319 320 319 319 321 321 320 321 323 322 320 323 325 325
302 301 301 301 302 302 303 304 307 309 309 307 308 307 308 312 312 313 314 312 314 315 312 312 314 313 314 317 317 316 317 318 318 318 321 321 321 321 320 322 322 322 324 325 325
302 301 301 301 302 302 303 305 308 309 307 306 307 307 308 308 313 313 314 314 314 315 315 313 313 314 314 315 314 314 314 316 318 320 322 320 321 322 321 321 322 322 324 325 325
301 301 302 302 302 302 304 305 308 306 307 307 307 307 308 307 307 310 313 316 314 314 314 314 314 314 315 314 315 314 316 319 321 321 322 321 323 323 322 321 323 323 323 325 324
301 301 304 304 304 304 305 302 304 306 306 306 306 307 307 307 307 309 310 313 315 314 313 314 314 316 315 315 314 314 317 317 318 321 321 321 322 321 323 324 324 324 324 325 325
301 302 305 305 304 304 305 303 305 306 305 306 307 307 307 306 307 308 310 312 315 315 312 314 314 316 315 315 314 313 313 315 315 321 323 322 323 324 323 326 326 325 323 325 325
301 302 304 305 304 304 306 304 304 304 304 306 306 306 306 306 308 308 310 311 312 312 313 313 314 317 316 315 315 313 314 314 314 316 320 321 322 319 321 324 325 323 324 325 326
301 300 303 304 304 303 305 304 304 304 305 305 305 306 307 306 307 306 307 309 311 311 313 312 311 314 316 315 316 315 315 314 318 319 318 320 322 321 319 321 323 323 325 326 326
301 301 303 305 304 304 304 305 304 304 305 305 306 307 307 308 308 307 310 310 309 309 310 312 314 315 313 316 314 315 314 315 314 316 319 322 322 323 322 320 325 323 325 326 327
301 300 302 305 303 303 303 303 305 304 304 304 305 306 307 308 308 308 307 307 307 308 312 310 312 316 315 316 317 316 315 314 316 317 318 320 321 328 327 325 324 325 326 327 327
301 299 302 299 299 299 301 302 304 306 304 304 304 306 306 309 309 309 308 308 308 308 309 308 310 316 317 315 316 319 316 316 317 318 320 321 321 325 326 325 325 325 325 326 326
301 301 302 302 301 300 301 304 305 306 306 306 306 307 307 307 309 311 310 310 309 308 309 307 309 313 319 317 316 316 317 316 318 319 320 320 320 321 326 327 326 326 325 325 326
301 302 302 301 299 298 300 304 303 304 306 306 306 306 305 307 307 308 309 308 309 309 308 308 310 310 318 317 315 315 316 316 318 320 321 321 320 319 326 326 326 326 326 326 327
Wind_Speed
22 23 24 25 27 27 27 27 27 26 25 24 24 24 25 27 27 26 29 24 19 16 22 21 19 22 18 14 11 10 2 6 7 7 8 13 4 22 14 13 11 12 18 21 13
22 23 24 25 26 27 28 28 28 28 28 27 26 25 25 27 30 34 32 26 23 23 25 22 20 24 13 10 11 7 5 10 11 9 8 15 12 25 13 22 20 19 19 21 18
20 20 21 23 25 26 26 26 27 28 28 27 27 27 24 23 29 38 32 27 26 23 31 23 20 24 17 12 12 10 13 23 16 24 17 16 25 28 17 15 24 26 16 17 24
20 22 23 23 23 24 26 27 28 28 28 27 26 27 24 19 9 3 17 18 16 22 27 25 24 14 8 11 26 6 19 28 31 32 16 13 24 23 28 27 39 40 27 18 30
19 19 19 19 21 25 25 25 26 26 26 25 25 24 22 17 27 9 21 16 8 6 22 31 24 21 9 7 8 8 19 28 27 27 28 30 26 25 29 41 43 42 34 24 31
21 22 22 22 21 21 21 23 25 26 25 23 20 20 21 15 36 34 32 32 18 10 9 26 17 24 6 11 10 9 15 19 21 28 29 26 27 24 35 32 38 34 26 24 32
22 22 22 22 23 23 24 23 21 22 25 26 19 18 25 46 24 21 30 44 38 35 29 21 32 16 12 6 15 13 12 14 19 18 23 26 19 22 35 35 34 37 31 29 33
22 23 24 24 24 24 24 23 24 24 23 19 18 15 21 30 28 42 40 31 32 31 32 30 21 34 16 8 8 5 2 7 6 13 21 10 25 20 37 33 35 37 35 30 35
22 22 24 25 26 25 25 27 27 28 27 20 14 13 18 18 32 39 41 41 40 26 22 17 22 17 7 9 5 2 13 13 17 11 7 8 16 11 26 22 27 34 39 36 37
25 24 24 24 25 26 27 27 24 14 9 8 12 6 24 18 15 20 26 33 33 22 30 18 12 6 5 6 13 11 7 13 22 3 11 17 15 20 30 21 24 32 35 34 36
24 25 26 26 25 24 26 28 8 2 7 10 9 13 7 14 18 7 9 19 24 14 10 19 8 18 21 21 13 7 15 16 16 3 8 8 9 17 21 15 20 29 37 35 32
24 23 23 25 27 25 21 11 6 11 14 24 32 37 45 32 12 13 12 13 13 16 14 8 30 15 13 14 15 11 10 20 15 9 7 11 13 17 14 13 22 26 36 24 24
24 23 24 23 24 25 11 12 13 20 7 17 28 23 36 40 19 21 18 12 6 14 24 28 8 19 20 18 18 18 18 16 19 1 6 10 14 14 17 11 23 25 22 19 25
24 22 22 24 19 13 12 1 13 10 4 8 7 8 12 21 17 45 20 10 7 18 18 17 23 21 21 23 17 18 17 20 19 6 8 4 5 5 8 12 7 20 14 18 22
23 23 22 19 22 21 13 17 9 5 5 3 3 5 13 16 5 24 36 26 11 9 9 11 18 23 17 27 19 19 13 11 11 9 5 11 3 7 3 8 11 11 14 12 12
23 25 22 22 20 17 9 10 4 2 8 5 5 11 13 15 20 6 22 30 16 4 9 10 15 23 34 14 19 6 3 2 6 1 11 18 6 5 6 8 7 4 4 9 17
26 25 22 21 20 15 13 6 3 5 4 2 11 16 11 16 6 10 10 17 17 12 15 8 17 6 10 19 6 7 7 2 3 4 6 7 6 15 10 10 9 9 12 17 20
27 23 22 17 14 9 2 0 8 6 11 15 17 14 7 20 10 15 12 15 24 17 11 13 10 23 12 13 18 17 14 6 7 4 4 6 6 9 5 10 21 24 14 22 25
26 23 10 9 3 10 5 3 3 3 7 12 16 7 9 15 9 12 8 13 11 19 8 12 14 4 22 6 16 16 16 14 2 2 2 4 7 10 3 3 3 9 19 24 27
26 19 10 7 4 11 2 5 3 4 9 11 7 6 10 13 10 13 6 18 7 6 5 3 2 7 16 17 19 10 10 8 4 5 4 4 4 6 5 3 3 6 11 20 25
19 8 4 1 8 5 2 3 7 10 11 4 5 7 13 14 4 8 6 7 17 16 11 3 1 2 8 17 22 7 8 4 8 5 5 2 6 7 9 9 11 9 19 28 30
10 4 9 4 1 1 2 3 7 10 11 8 5 9 12 11 8 7 10 11 16 15 8 5 5 5 14 3 19 18 18 13 8 8 6 4 8 4 8 11 11 13 24 28 30
15 5 5 3 2 2 3 6 6 7 4 3 4 3 9 8 5 3 6 10 20 14 13 7 4 8 6 4 4 22 19 21 3 3 6 10 9 1 5 8 13 16 24 28 30
7 4 4 1 1 3 5 5 4 11 10 7 6 7 10 10 9 7 11 7 17 20 14 4 5 11 16 6 5 6 20 12 15 10 9 8 2 4 4 8 7 14 25 32 33
5 3 3 3 4 6 3 4 7 7 5 8 3 5 7 5 7 10 14 12 13 15 5 3 4 7 16 21 9 2 9 21 19 18 14 11 9 9 11 10 15 24 27 29 31
5 3 4 7 10 6 4 2 10 10 3 6 3 9 6 6 7 6 13 6 4 6 8 5 4 8 6 16 23 18 5 18 19 15 12 8 9 8 11 15 11 24 27 29 35
7 7 6 4 4 3 3 7 11 12 8 11 14 8 8 11 10 12 13 12 10 7 7 4 3 7 6 11 9 15 28 12 9 16 17 12 8 8 5 11 15 23 30 34 37
Wind_Direction
284 286 283 284 285 285 285 284 281 277 273 274 275 274 276 279 276 273 266 266 272 270 255 260 219 208 209 223 198 185 113 245 237 185 248 274 357 300 315 294 312 214 244 270 233
289 284 283 285 286 287 284 282 281 280 276 273 274 274 275 279 281 270 269 279 270 258 250 242 222 201 198 211 203 176 176 233 221 208 247 284 297 290 309 300 295 273 275 263 222
308 302 290 281 278 279 281 283 283 280 277 277 273 272 274 278 287 271 277 273 263 243 237 240 224 209 213 199 200 191 218 234 271 246 245 276 286 289 282 288 280 283 294 266 212
325 315 308 301 293 282 277 276 278 280 281 277 275 273 270 265 241 238 237 224 222 223 221 210 207 195 212 205 220 252 230 240 249 261 269 256 278 280 283 277 287 291 290 252 209
337 335 333 324 313 305 297 286 276 276 277 278 281 278 271 246 236 213 197 203 190 215 218 201 200 204 215 206 211 210 243 245 259 274 275 277 267 266 281 286 290 289 281 245 221
334 332 330 329 328 321 313 305 293 281 276 274 279 282 275 249 255 250 240 241 236 262 214 205 213 215 235 237 238 237 252 269 262 263 269 268 275 281 278 280 289 285 262 244 235
331 331 330 326 323 321 322 314 304 292 285 280 279 277 262 247 247 249 243 241 244 250 243 230 223 201 223 313 290 268 275 272 266 262 262 272 281 267 276 282 283 284 275 261 244
325 325 323 324 323 322 320 313 302 296 292 288 270 266 258 260 265 251 244 238 233 247 242 239 240 235 243 252 319 351 284 267 247 239 258 212 264 271 277 276 275 280 281 266 245
323 322 322 320 316 317 318 313 308 297 277 265 256 234 273 270 253 257 244 239 239 234 227 227 224 218 202 214 291 245 258 277 285 238 261 191 274 270 277 272 266 277 280 268 252
325 322 320 318 318 316 313 314 316 306 289 200 217 236 251 248 261 267 251 237 234 230 228 219 213 183 171 162 211 217 235 248 252 252 223 253 260 274 279 276 278 282 283 273 248
321 321 322 320 318 319 314 331 346 294 311 227 215 228 137 21 227 269 239 197 204 195 177 179 199 212 202 210 217 195 226 245 257 215 249 246 262 276 281 286 272 278 277 268 253
324 319 317 317 316 317 312 310 5 323 298 286 272 252 260 272 298 233 220 156 178 201 170 172 227 206 201 210 220 230 243 256 285 260 232 269 263 271 282 277 274 264 269 261 252
325 323 321 316 309 310 302 302 342 334 272 284 255 247 238 242 227 250 201 176 171 190 193 200 214 207 201 204 210 224 228 249 249 343 256 282 284 278 283 299 283 272 261 258 261
327 325 323 318 315 299 312 357 324 316 287 272 220 253 218 221 224 235 213 195 203 196 202 232 222 190 202 213 204 229 220 241 254 265 263 133 289 295 275 295 290 273 248 247 245
328 326 323 318 301 296 305 305 311 156 297 231 177 50 308 185 143 219 215 211 197 164 180 210 192 225 220 213 200 232 219 232 247 254 262 256 272 265 255 288 274 265 277 269 221
325 325 315 309 299 317 320 318 306 211 238 293 54 349 3 217 243 295 177 207 204 233 234 223 206 200 218 202 202 175 200 273 263 279 262 267 181 220 228 222 263 256 286 192 184
330 324 309 295 283 308 310 333 192 217 269 204 359 345 347 339 235 245 247 187 186 194 214 199 224 215 170 212 172 175 115 260 280 214 223 237 178 242 261 237 231 240 199 175 180
334 328 321 302 288 272 311 129 226 255 260 333 357 335 22 11 338 333 229 204 213 197 183 201 214 210 185 197 196 206 179 165 201 197 195 169 233 253 239 281 246 256 210 177 177
336 337 358 357 214 165 166 220 238 330 352 350 342 360 349 350 339 352 334 237 229 209 183 199 232 171 191 156 173 200 207 185 17 317 83 211 279 329 317 313 215 146 160 178 180
340 338 21 354 201 161 180 230 278 307 342 349 325 324 334 336 346 354 305 30 328 273 80 285 195 206 201 192 200 165 146 187 195 205 198 268 258 216 240 224 166 146 164 173 182
342 337 355 124 163 157 261 232 311 294 307 304 330 304 305 306 346 336 305 320 24 350 340 239 137 286 142 202 190 163 211 154 159 219 168 185 252 218 203 185 192 201 182 181 182
353 328 347 255 119 333 253 279 318 288 295 279 244 269 278 288 279 277 280 320 14 1 4 281 216 220 221 286 192 196 204 209 175 201 227 158 260 220 210 193 189 182 185 185 185
340 303 339 335 23 340 269 272 258 286 281 286 280 232 283 296 296 236 271 309 316 4 346 326 283 248 335 337 144 193 196 212 143 97 192 191 247 240 174 190 190 158 183 187 185
346 339 329 342 351 352 328 291 284 287 296 249 245 249 281 292 265 249 277 290 305 317 339 323 279 236 219 222 157 177 201 183 189 211 219 223 210 224 160 152 149 183 186 188 188
6 300 350 307 336 312 250 288 319 320 301 311 307 237 266 282 310 242 250 272 289 315 317 34 270 293 270 252 275 194 185 202 206 207 197 222 192 210 187 176 199 189 184 182 185
9 330 326 285 303 306 310 282 312 321 287 303 232 296 299 253 260 293 307 291 296 296 346 345 280 328 264 237 240 249 251 202 210 206 217 183 216 199 190 176 137 183 176 181 188
341 317 287 271 297 298 269 327 300 303 269 271 290 291 292 281 298 237 250 261 248 242 282 287 327 359 279 218 231 253 242 230 210 205 198 196 212 149 144 171 181 186 188 190 193